DECAYED

ELECTRON R/B (2), 68801 (Decayed)

Orbit data source: Space-Track

ELECTRON R/B (2), 68801 was space debris in LEO originally from a launch on Thu, 23 Apr 2026 UTC launched from the Rocket Lab Launch Complex (RLLC). Debris objects in space refer to the collection of defunct objects orbiting the Earth. Examples of debris include non-operational satellites, rocket bodies, and fragments generated from explosions, collisions, or faulty payload assembly.

Not visible in the next 10 days
Identifier
68801, 2026-088K
Orbit
Decayed
Country
Flag of USUS
Related business
Manufacturer
Rocket Lab
Mission
Decayed spacecraft
Bus & Motor
KICK STAGE, CURIE
Mass
~50 kg wet, ~50 kg dry
Launch date (UTC)
2026-04-23 (2 months ago)
Launch vehicle
Unknown
Launch site
Rocket Lab Launch Complex (RLLC)
Object type
Payload
Rocket body
Debris
Shape & HBR
Unknown shape, 8.0 m
Radar Cross Section
Medium (>0.1 m² and <1 m²)

Expand to show TLE details & history
Last TLE update: 1 month ago

TLE from 1 month ago
0 ELECTRON R/B (2)
1 68801U 26088K   26132.69883670  .12520094  21931-5  24337-3 0  9994
2 68801  97.4647 285.2889 0040705 216.2899 143.5640 16.42313001  3105
Epoch: 2026-05-12T16:46Z
TLE epoch observation values (Epoch: 2026-05-12T16:46:19.490Z)
Latitude
-0.00005°
Longitude
163.23823°
Altitude
184.362 km
Speed
7.783 km/s
True Right ascension
19h 01m 09s
True Declination
0° 00' 00"
Sunlit
Object was in full shadow at epoch
Visualization orbit readout
Latitude
Unknown
Longitude
Unknown
Altitude
Unknown
Speed
Unknown
Apparent Right ascension
Unknown
Apparent Declination
Unknown
Sunlit
N/A
Visualization observer readout
Local Sidereal Time
07:19:54
Azimuth
Unknown
Elevation
Unknown
Doppler factor
Unknown
Orbital elements
Apogee altitude
183.063 km
Perigee altitude
129.865 km
Semi-major axis
6,534.601 km
Eccentricity
0.00407
Inclination
97.4647°
RAAN
285.2889°
Arg. of periapsis
216.2899°
True anomaly
143.8399°
Mean anomaly
143.564°
Eccentric anomaly
143.70206°
Mean motion
4.1088 °/min
Orbital period
87.62 mins
BSTAR
0.00024337
Loading maneuver chart data...
Computing Atmospheric mass density...
Loading historical data...
Loading historical data...
Loading historical data...
Loading historical data...
Loading historical data...
Loading historical data...
Loading historical data...

Documentation

Showing up to 5 results
|